[Date Prev][Date Next][Thread Prev][Thread Next] - [Date Index][Thread Index][Author Index]
2 Line ISS Keps 5-16
- Subject: [sarex] 2 Line ISS Keps 5-16
- From: "Dave Larsen PhD" <doc@xxxxxxxxxxx>
- Date: Thu, 16 May 2002 03:18:53 -0700
ISS
1 25544U 98067A 02136.36414231 -.00006418 00000-0 -73501-4 0 4543
2 25544 51.6339 212.9326 0006263 78.3215 359.5886 15.59304341199061
----
Via the sarex mailing list at AMSAT.ORG courtesy of AMSAT-NA.
To unsubscribe, send "unsubscribe sarex" to Majordomo@amsat.org
AMSAT Home